QPF
0.00 0.00 0.00 0.00 0.00 0.01 0.01 0.00 0.00 0.00 0.01 0.02 0.02 0.02 0.02 0.01 0.01 0.00 0.01 0.03 0.04 0.06 0.07 0.06 0.04 0.03 0.02 0.02 0.02 0.02 0.02 0.04 0.08 0.21 0.19 0.12 0.11 0.09 0.06 0.06 0.07 0.08 0.12
0.00 0.00 0.00 0.00 0.01 0.01 0.01 0.00 0.00 0.01 0.01 0.02 0.02 0.02 0.02 0.02 0.01 0.01 0.01 0.02 0.03 0.05 0.06 0.06 0.04 0.03 0.02 0.02 0.02 0.02 0.02 0.04 0.07 0.15 0.22 0.14 0.11 0.09 0.06 0.08 0.07 0.08 0.13
0.00 0.00 0.00 0.00 0.01 0.01 0.00 0.00 0.01 0.01 0.02 0.02 0.01 0.02 0.02 0.02 0.02 0.01 0.01 0.01 0.02 0.03 0.05 0.05 0.04 0.03 0.03 0.02 0.02 0.02 0.03 0.04 0.05 0.11 0.17 0.16 0.12 0.07 0.08 0.08 0.05 0.09 0.15
0.00 0.00 0.00 0.00 0.00 0.00 0.00 0.00 0.00 0.01 0.01 0.01 0.01 0.02 0.02 0.02 0.02 0.02 0.01 0.01 0.02 0.02 0.03 0.03 0.04 0.05 0.04 0.03 0.02 0.03 0.02 0.03 0.03 0.05 0.09 0.10 0.10 0.07 0.09 0.11 0.09 0.11 0.16
0.00 0.00 0.00 0.00 0.00 0.00 0.00 0.00 0.00 0.00 0.01 0.02 0.01 0.02 0.03 0.04 0.04 0.03 0.02 0.03 0.03 0.02 0.02 0.02 0.04 0.05 0.05 0.05 0.04 0.04 0.05 0.04 0.02 0.03 0.06 0.06 0.08 0.11 0.15 0.21 0.18 0.17 0.18
0.00 0.00 0.00 0.00 0.00 0.00 0.00 0.00 0.01 0.02 0.02 0.02 0.02 0.02 0.03 0.06 0.07 0.09 0.07 0.06 0.05 0.04 0.03 0.02 0.03 0.02 0.03 0.03 0.04 0.06 0.09 0.08 0.04 0.03 0.05 0.06 0.07 0.11 0.13 0.27 0.31 0.24 0.22
0.00 0.00 0.00 0.00 0.00 0.00 0.00 0.00 0.01 0.01 0.01 0.01 0.01 0.01 0.04 0.08 0.08 0.12 0.10 0.09 0.06 0.05 0.04 0.02 0.02 0.01 0.01 0.02 0.04 0.10 0.12 0.12 0.09 0.06 0.04 0.05 0.07 0.12 0.13 0.19 0.32 0.31 0.22
0.01 0.00 0.00 0.00 0.00 0.00 0.00 0.00 0.00 0.00 0.01 0.01 0.00 0.00 0.02 0.05 0.09 0.09 0.08 0.06 0.05 0.05 0.06 0.04 0.02 0.01 0.01 0.01 0.03 0.16 0.26 0.20 0.13 0.11 0.09 0.07 0.06 0.12 0.17 0.16 0.22 0.28 0.22
0.00 0.01 0.01 0.01 0.01 0.00 0.00 0.00 0.00 0.00 0.01 0.01 0.01 0.01 0.01 0.03 0.05 0.05 0.05 0.05 0.05 0.07 0.07 0.03 0.02 0.02 0.02 0.01 0.02 0.09 0.22 0.24 0.19 0.16 0.13 0.11 0.10 0.11 0.16 0.17 0.17 0.22 0.21
0.00 0.01 0.01 0.01 0.00 0.00 0.00 0.00 0.00 0.00 0.00 0.00 0.00 0.01 0.01 0.01 0.01 0.01 0.03 0.04 0.06 0.05 0.04 0.03 0.03 0.02 0.02 0.02 0.02 0.04 0.08 0.14 0.15 0.15 0.12 0.12 0.10 0.09 0.10 0.14 0.15 0.17 0.18
0.01 0.01 0.01 0.01 0.00 0.00 0.00 0.00 0.00 0.00 0.00 0.01 0.00 0.00 0.01 0.02 0.01 0.01 0.01 0.02 0.04 0.04 0.04 0.03 0.03 0.03 0.02 0.02 0.02 0.02 0.02 0.04 0.06 0.07 0.08 0.10 0.10 0.09 0.09 0.10 0.11 0.14 0.14
0.00 0.00 0.00 0.00 0.01 0.00 0.00 0.00 0.00 0.00 0.00 0.00 0.00 0.00 0.01 0.02 0.01 0.01 0.01 0.01 0.02 0.03 0.03 0.03 0.02 0.03 0.02 0.01 0.02 0.01 0.01 0.01 0.01 0.02 0.04 0.06 0.08 0.09 0.11 0.11 0.11 0.13 0.13
0.00 0.00 0.00 0.00 0.00 0.00 0.00 0.00 0.00 0.00 0.00 0.00 0.00 0.00 0.01 0.02 0.01 0.01 0.01 0.01 0.02 0.03 0.03 0.03 0.03 0.02 0.01 0.01 0.01 0.01 0.01 0.01 0.01 0.01 0.01 0.02 0.04 0.05 0.08 0.10 0.11 0.10 0.10
0.00 0.00 0.00 0.00 0.00 0.00 0.00 0.00 0.00 0.00 0.00 0.00 0.00 0.00 0.00 0.01 0.02 0.01 0.01 0.01 0.02 0.02 0.02 0.02 0.02 0.02 0.01 0.01 0.01 0.01 0.01 0.01 0.01 0.01 0.01 0.01 0.02 0.03 0.04 0.05 0.07 0.07 0.08
0.00 0.00 0.00 0.00 0.00 0.00 0.00 0.00 0.00 0.00 0.00 0.00 0.00 0.00 0.00 0.01 0.02 0.01 0.00 0.00 0.01 0.01 0.01 0.02 0.01 0.01 0.01 0.00 0.01 0.01 0.01 0.01 0.01 0.01 0.01 0.01 0.01 0.02 0.03 0.04 0.05 0.05 0.04
0.00 0.00 0.00 0.00 0.00 0.00 0.00 0.00 0.00 0.00 0.00 0.00 0.00 0.00 0.01 0.02 0.01 0.01 0.00 0.00 0.00 0.00 0.01 0.01 0.00 0.00 0.00 0.00 0.00 0.00 0.00 0.01 0.01 0.01 0.01 0.02 0.02 0.01 0.01 0.02 0.03 0.04 0.04
0.00 0.00 0.00 0.00 0.00 0.00 0.00 0.00 0.00 0.00 0.00 0.00 0.00 0.00 0.01 0.00 0.00 0.00 0.00 0.00 0.00 0.00 0.01 0.00 0.00 0.00 0.00 0.00 0.00 0.00 0.00 0.00 0.01 0.00 0.00 0.01 0.02 0.02 0.02 0.01 0.01 0.02 0.02
0.00 0.00 0.00 0.00 0.00 0.00 0.00 0.00 0.00 0.00 0.00 0.00 0.00 0.00 0.00 0.00 0.00 0.00 0.01 0.00 0.00 0.00 0.01 0.00 0.00 0.00 0.00 0.00 0.00 0.00 0.00 0.00 0.01 0.01 0.00 0.01 0.01 0.01 0.02 0.02 0.02 0.01 0.01
0.00 0.00 0.00 0.00 0.00 0.00 0.00 0.00 0.00 0.00 0.00 0.00 0.00 0.00 0.00 0.00 0.00 0.00 0.00 0.00 0.00 0.00 0.00 0.00 0.00 0.00 0.00 0.00 0.00 0.00 0.00 0.00 0.01 0.01 0.00 0.00 0.00 0.00 0.01 0.01 0.01 0.01 0.01
0.00 0.00 0.00 0.00 0.00 0.00 0.00 0.00 0.00 0.00 0.00 0.00 0.00 0.00 0.00 0.00 0.00 0.00 0.00 0.00 0.00 0.00 0.00 0.00 0.00 0.00 0.00 0.00 0.00 0.00 0.00 0.00 0.01 0.01 0.01 0.00 0.00 0.00 0.00 0.01 0.01 0.02 0.02
0.00 0.00 0.00 0.00 0.00 0.00 0.00 0.00 0.00 0.00 0.00 0.00 0.00 0.00 0.00 0.00 0.00 0.00 0.00 0.00 0.00 0.00 0.00 0.00 0.00 0.01 0.01 0.00 0.00 0.00 0.00 0.00 0.00 0.01 0.01 0.01 0.00 0.00 0.00 0.01 0.01 0.02 0.01
0.00 0.00 0.00 0.00 0.00 0.00 0.00 0.00 0.00 0.00 0.00 0.00 0.00 0.00 0.00 0.00 0.00 0.00 0.01 0.01 0.00 0.00 0.00 0.00 0.00 0.01 0.01 0.00 0.00 0.00 0.00 0.00 0.00 0.01 0.01 0.01 0.00 0.00 0.00 0.00 0.00 0.01 0.01
0.00 0.00 0.00 0.00 0.00 0.00 0.00 0.00 0.00 0.00 0.00 0.00 0.00 0.00 0.00 0.00 0.00 0.00 0.00 0.00 0.00 0.00 0.00 0.00 0.00 0.01 0.02 0.00 0.00 0.00 0.00 0.00 0.00 0.01 0.01 0.01 0.00 0.00 0.00 0.00 0.00 0.00 0.00
0.00 0.00 0.00 0.00 0.00 0.00 0.00 0.00 0.00 0.00 0.00 0.00 0.00 0.00 0.00 0.00 0.00 0.00 0.00 0.00 0.00 0.00 0.00 0.00 0.00 0.01 0.02 0.01 0.01 0.00 0.00 0.00 0.00 0.01 0.01 0.00 0.00 0.00 0.00 0.00 0.00 0.00 0.00
0.00 0.00 0.00 0.00 0.00 0.00 0.00 0.00 0.00 0.00 0.00 0.00 0.00 0.00 0.00 0.00 0.00 0.01 0.00 0.00 0.00 0.00 0.00 0.00 0.00 0.02 0.03 0.01 0.00 0.00 0.00 0.00 0.00 0.01 0.01 0.00 0.00 0.00 0.00 0.00 0.00 0.00 0.00
0.00 0.00 0.00 0.00 0.00 0.00 0.00 0.00 0.00 0.00 0.00 0.00 0.00 0.00 0.00 0.00 0.00 0.00 0.00 0.00 0.00 0.00 0.00 0.01 0.01 0.02 0.01 0.00 0.00 0.00 0.00 0.00 0.00 0.00 0.00 0.00 0.00 0.00 0.00 0.00 0.00 0.00 0.00
MSLP
1017.47 1017.29 1017.01 1016.69 1016.37 1016.10 1015.91 1015.82 1015.83 1015.90 1016.00 1016.08 1016.10 1016.05 1015.92 1015.74 1015.54 1015.35 1015.20 1015.10 1015.06 1015.05 1015.08 1015.10 1015.09 1015.04 1014.94 1014.80 1014.63 1014.45 1014.29 1014.15 1014.06 1014.02 1014.04 1014.12 1014.23 1014.39 1014.58 1014.80 1015.06 1015.34 1015.64
1017.81 1017.62 1017.36 1017.07 1016.78 1016.55 1016.39 1016.33 1016.35 1016.43 1016.54 1016.63 1016.67 1016.64 1016.54 1016.37 1016.18 1015.97 1015.79 1015.66 1015.58 1015.55 1015.57 1015.61 1015.66 1015.69 1015.69 1015.66 1015.58 1015.47 1015.33 1015.19 1015.07 1014.97 1014.92 1014.92 1014.97 1015.09 1015.26 1015.48 1015.74 1016.03 1016.35
1018.12 1017.93 1017.70 1017.45 1017.22 1017.04 1016.93 1016.90 1016.95 1017.05 1017.16 1017.27 1017.33 1017.32 1017.24 1017.10 1016.92 1016.71 1016.50 1016.33 1016.20 1016.12 1016.10 1016.13 1016.18 1016.23 1016.28 1016.29 1016.26 1016.18 1016.07 1015.93 1015.79 1015.67 1015.59 1015.56 1015.61 1015.73 1015.92 1016.16 1016.45 1016.76 1017.09
1018.40 1018.23 1018.04 1017.85 1017.68 1017.57 1017.51 1017.52 1017.60 1017.71 1017.84 1017.95 1018.03 1018.05 1018.00 1017.90 1017.73 1017.53 1017.31 1017.10 1016.92 1016.79 1016.71 1016.68 1016.70 1016.73 1016.77 1016.78 1016.77 1016.70 1016.60 1016.47 1016.33 1016.21 1016.13 1016.12 1016.18 1016.33 1016.55 1016.82 1017.14 1017.47 1017.80
1018.69 1018.54 1018.39 1018.26 1018.17 1018.12 1018.12 1018.17 1018.26 1018.38 1018.50 1018.62 1018.72 1018.77 1018.76 1018.70 1018.57 1018.40 1018.19 1017.96 1017.75 1017.56 1017.42 1017.33 1017.29 1017.27 1017.27 1017.26 1017.23 1017.16 1017.06 1016.94 1016.81 1016.70 1016.64 1016.65 1016.74 1016.91 1017.15 1017.45 1017.77 1018.10 1018.40
1018.99 1018.86 1018.77 1018.71 1018.68 1018.69 1018.73 1018.80 1018.89 1019.00 1019.12 1019.24 1019.35 1019.43 1019.47 1019.47 1019.40 1019.28 1019.11 1018.90 1018.67 1018.45 1018.26 1018.11 1018.00 1017.93 1017.88 1017.83 1017.77 1017.69 1017.58 1017.46 1017.34 1017.25 1017.21 1017.24 1017.34 1017.51 1017.75 1018.03 1018.32 1018.61 1018.87
1019.30 1019.21 1019.17 1019.17 1019.20 1019.25 1019.31 1019.38 1019.46 1019.55 1019.64 1019.75 1019.87 1019.99 1020.10 1020.17 1020.18 1020.14 1020.03 1019.86 1019.66 1019.43 1019.21 1019.02 1018.86 1018.73 1018.63 1018.54 1018.45 1018.35 1018.23 1018.11 1018.00 1017.92 1017.88 1017.90 1017.99 1018.14 1018.33 1018.56 1018.79 1019.01 1019.20
1019.64 1019.58 1019.58 1019.63 1019.70 1019.77 1019.84 1019.90 1019.95 1020.00 1020.07 1020.17 1020.30 1020.46 1020.62 1020.78 1020.89 1020.94 1020.91 1020.82 1020.66 1020.46 1020.24 1020.03 1019.83 1019.67 1019.52 1019.39 1019.27 1019.15 1019.02 1018.89 1018.78 1018.69 1018.64 1018.64 1018.69 1018.79 1018.92 1019.06 1019.20 1019.33 1019.43
1019.99 1019.96 1020.00 1020.07 1020.17 1020.25 1020.31 1020.35 1020.36 1020.37 1020.42 1020.50 1020.64 1020.84 1021.06 1021.30 1021.51 1021.66 1021.73 1021.72 1021.62 1021.47 1021.27 1021.06 1020.85 1020.66 1020.49 1020.33 1020.18 1020.03 1019.89 1019.75 1019.63 1019.52 1019.46 1019.42 1019.42 1019.45 1019.50 1019.54 1019.58 1019.61 1019.62
1020.32 1020.33 1020.39 1020.49 1020.59 1020.68 1020.73 1020.74 1020.72 1020.71 1020.72 1020.80 1020.95 1021.17 1021.45 1021.76 1022.05 1022.29 1022.45 1022.52 1022.49 1022.39 1022.23 1022.04 1021.83 1021.63 1021.44 1021.25 1021.07 1020.91 1020.74 1020.59 1020.45 1020.33 1020.24 1020.18 1020.13 1020.10 1020.07 1020.03 1019.97 1019.90 1019.83
1020.64 1020.67 1020.75 1020.87 1020.98 1021.07 1021.11 1021.10 1021.07 1021.04 1021.04 1021.12 1021.27 1021.52 1021.83 1022.18 1022.52 1022.83 1023.05 1023.19 1023.23 1023.18 1023.06 1022.89 1022.70 1022.49 1022.28 1022.08 1021.88 1021.69 1021.50 1021.33 1021.18 1021.05 1020.95 1020.86 1020.78 1020.71 1020.62 1020.51 1020.39 1020.25 1020.10
1020.92 1020.98 1021.08 1021.21 1021.34 1021.43 1021.47 1021.47 1021.44 1021.41 1021.42 1021.49 1021.65 1021.90 1022.22 1022.58 1022.95 1023.28 1023.55 1023.72 1023.80 1023.80 1023.72 1023.58 1023.40 1023.20 1022.99 1022.77 1022.55 1022.33 1022.13 1021.94 1021.78 1021.64 1021.53 1021.43 1021.35 1021.26 1021.15 1021.01 1020.84 1020.66 1020.47
1021.16 1021.25 1021.37 1021.52 1021.66 1021.77 1021.84 1021.86 1021.85 1021.84 1021.86 1021.94 1022.10 1022.34 1022.65 1022.99 1023.35 1023.67 1023.94 1024.13 1024.24 1024.26 1024.22 1024.11 1023.96 1023.78 1023.57 1023.34 1023.10 1022.86 1022.63 1022.42 1022.25 1022.10 1021.99 1021.91 1021.83 1021.75 1021.64 1021.50 1021.33 1021.13 1020.92
1021.36 1021.48 1021.63 1021.80 1021.96 1022.10 1022.20 1022.26 1022.29 1022.31 1022.36 1022.45 1022.61 1022.83 1023.10 1023.41 1023.72 1024.01 1024.26 1024.45 1024.56 1024.61 1024.60 1024.54 1024.42 1024.26 1024.06 1023.84 1023.59 1023.33 1023.08 1022.85 1022.65 1022.50 1022.39 1022.31 1022.25 1022.19 1022.11 1021.99 1021.83 1021.63 1021.41
1021.53 1021.67 1021.84 1022.03 1022.23 1022.40 1022.55 1022.65 1022.73 1022.80 1022.88 1022.99 1023.14 1023.33 1023.57 1023.82 1024.08 1024.32 1024.53 1024.70 1024.83 1024.91 1024.93 1024.91 1024.85 1024.72 1024.55 1024.34 1024.09 1023.81 1023.54 1023.28 1023.06 1022.88 1022.76 1022.69 1022.64 1022.59 1022.53 1022.44 1022.31 1022.13 1021.91
1021.67 1021.83 1022.02 1022.24 1022.46 1022.67 1022.85 1023.01 1023.15 1023.26 1023.38 1023.50 1023.65 1023.82 1024.01 1024.21 1024.41 1024.60 1024.78 1024.94 1025.08 1025.18 1025.26 1025.30 1025.29 1025.22 1025.09 1024.90 1024.66 1024.37 1024.07 1023.78 1023.52 1023.32 1023.17 1023.07 1023.01 1022.97 1022.92 1022.85 1022.73 1022.57 1022.37
1021.77 1021.95 1022.17 1022.40 1022.64 1022.88 1023.10 1023.31 1023.49 1023.65 1023.80 1023.94 1024.09 1024.23 1024.39 1024.54 1024.70 1024.86 1025.02 1025.17 1025.33 1025.48 1025.62 1025.72 1025.78 1025.78 1025.70 1025.54 1025.31 1025.02 1024.70 1024.37 1024.07 1023.82 1023.62 1023.49 1023.39 1023.33 1023.27 1023.19 1023.07 1022.92 1022.73
1021.84 1022.05 1022.27 1022.52 1022.77 1023.03 1023.28 1023.51 1023.73 1023.92 1024.10 1024.26 1024.41 1024.55 1024.69 1024.82 1024.95 1025.09 1025.24 1025.41 1025.59 1025.79 1025.98 1026.16 1026.29 1026.35 1026.32 1026.20 1026.00 1025.71 1025.38 1025.02 1024.67 1024.37 1024.11 1023.91 1023.76 1023.65 1023.55 1023.44 1023.32 1023.16 1022.98
1021.88 1022.10 1022.34 1022.59 1022.85 1023.11 1023.37 1023.62 1023.86 1024.07 1024.27 1024.45 1024.61 1024.75 1024.88 1025.01 1025.13 1025.27 1025.43 1025.62 1025.84 1026.08 1026.32 1026.55 1026.74 1026.86 1026.88 1026.80 1026.62 1026.35 1026.01 1025.63 1025.25 1024.90 1024.58 1024.31 1024.09 1023.91 1023.76 1023.61 1023.45 1023.29 1023.10
1021.88 1022.13 1022.37 1022.62 1022.88 1023.14 1023.40 1023.65 1023.89 1024.11 1024.32 1024.52 1024.69 1024.84 1024.98 1025.11 1025.25 1025.40 1025.57 1025.78 1026.02 1026.29 1026.56 1026.83 1027.06 1027.21 1027.27 1027.23 1027.08 1026.83 1026.50 1026.12 1025.72 1025.33 1024.97 1024.64 1024.36 1024.11 1023.89 1023.68 1023.49 1023.29 1023.10
1021.85 1022.11 1022.36 1022.62 1022.87 1023.12 1023.36 1023.60 1023.84 1024.06 1024.27 1024.47 1024.66 1024.82 1024.98 1025.13 1025.28 1025.44 1025.63 1025.85 1026.09 1026.37 1026.65 1026.93 1027.16 1027.33 1027.41 1027.39 1027.27 1027.05 1026.75 1026.39 1026.00 1025.60 1025.22 1024.85 1024.52 1024.21 1023.93 1023.67 1023.43 1023.21 1022.99
1021.77 1022.05 1022.32 1022.57 1022.82 1023.05 1023.28 1023.50 1023.72 1023.93 1024.14 1024.34 1024.53 1024.71 1024.89 1025.05 1025.22 1025.39 1025.58 1025.80 1026.03 1026.29 1026.55 1026.80 1027.01 1027.17 1027.26 1027.25 1027.16 1026.98 1026.72 1026.40 1026.05 1025.67 1025.30 1024.92 1024.56 1024.22 1023.90 1023.59 1023.30 1023.04 1022.80
1021.63 1021.94 1022.22 1022.48 1022.72 1022.94 1023.15 1023.35 1023.55 1023.75 1023.94 1024.14 1024.33 1024.52 1024.71 1024.89 1025.06 1025.24 1025.43 1025.62 1025.83 1026.04 1026.26 1026.46 1026.64 1026.76 1026.83 1026.84 1026.77 1026.62 1026.42 1026.17 1025.87 1025.55 1025.20 1024.85 1024.49 1024.14 1023.78 1023.44 1023.12 1022.82 1022.55
1021.42 1021.76 1022.06 1022.32 1022.56 1022.78 1022.97 1023.15 1023.33 1023.51 1023.69 1023.88 1024.07 1024.26 1024.45 1024.63 1024.81 1024.98 1025.15 1025.32 1025.49 1025.65 1025.81 1025.95 1026.07 1026.16 1026.21 1026.21 1026.16 1026.06 1025.91 1025.73 1025.50 1025.24 1024.96 1024.65 1024.31 1023.96 1023.60 1023.23 1022.88 1022.54 1022.23
1021.13 1021.48 1021.80 1022.08 1022.32 1022.53 1022.71 1022.88 1023.04 1023.20 1023.37 1023.54 1023.73 1023.91 1024.10 1024.28 1024.46 1024.62 1024.78 1024.92 1025.05 1025.16 1025.27 1025.35 1025.42 1025.46 1025.48 1025.48 1025.44 1025.38 1025.29 1025.16 1025.01 1024.82 1024.59 1024.33 1024.03 1023.69 1023.33 1022.95 1022.58 1022.21 1021.87
1020.74 1021.11 1021.44 1021.72 1021.97 1022.18 1022.36 1022.52 1022.67 1022.82 1022.97 1023.14 1023.31 1023.49 1023.67 1023.85 1024.02 1024.18 1024.32 1024.44 1024.54 1024.63 1024.69 1024.73 1024.76 1024.77 1024.76 1024.75 1024.72 1024.68 1024.63 1024.55 1024.45 1024.31 1024.14 1023.92 1023.64 1023.33 1022.97 1022.59 1022.19 1021.80 1021.44
Thickness
5727 5726 5724 5722 5720 5719 5718 5717 5716 5716 5717 5717 5718 5719 5719 5720 5721 5722 5724 5726 5728 5730 5731 5733 5735 5737 5740 5743 5746 5749 5752 5755 5758 5761 5763 5766 5768 5768 5769 5770 5770 5771 5771
5727 5725 5723 5721 5719 5718 5717 5716 5716 5715 5715 5715 5716 5716 5717 5718 5719 5720 5722 5723 5725 5727 5729 5731 5733 5735 5737 5740 5743 5747 5750 5753 5756 5759 5761 5765 5767 5767 5768 5769 5769 5769 5769
5726 5724 5722 5720 5719 5718 5717 5716 5715 5714 5714 5713 5713 5714 5715 5716 5717 5718 5719 5720 5722 5724 5726 5728 5730 5732 5735 5737 5741 5744 5748 5751 5754 5756 5758 5762 5764 5766 5767 5768 5768 5768 5767
5725 5723 5721 5719 5718 5717 5716 5715 5713 5712 5710 5710 5710 5711 5712 5713 5715 5716 5717 5718 5719 5721 5722 5724 5726 5729 5732 5734 5738 5742 5745 5749 5751 5754 5756 5758 5761 5763 5766 5766 5767 5768 5766
5725 5723 5720 5719 5718 5717 5715 5714 5712 5710 5708 5708 5708 5709 5709 5711 5712 5714 5715 5715 5717 5718 5720 5721 5723 5726 5728 5731 5735 5739 5742 5745 5748 5750 5752 5754 5756 5759 5762 5763 5766 5767 5766
5724 5722 5720 5718 5717 5716 5714 5712 5711 5710 5708 5707 5708 5707 5706 5708 5709 5710 5711 5713 5714 5715 5717 5718 5720 5723 5725 5728 5731 5735 5739 5742 5744 5746 5748 5750 5752 5754 5757 5759 5763 5765 5763
5724 5722 5719 5718 5716 5714 5712 5712 5710 5709 5707 5707 5705 5702 5703 5705 5705 5706 5708 5710 5711 5713 5714 5715 5717 5719 5722 5724 5728 5732 5736 5739 5740 5742 5744 5746 5748 5749 5751 5754 5756 5757 5755
5723 5721 5719 5717 5715 5713 5712 5711 5710 5707 5706 5706 5703 5697 5693 5695 5700 5703 5705 5707 5708 5710 5711 5712 5714 5716 5718 5720 5724 5728 5732 5735 5736 5738 5740 5741 5743 5745 5746 5749 5750 5750 5749
5722 5720 5718 5717 5715 5713 5710 5710 5709 5707 5703 5704 5704 5699 5691 5687 5691 5697 5700 5703 5705 5706 5708 5709 5711 5712 5714 5717 5719 5722 5725 5728 5731 5733 5735 5737 5738 5740 5741 5743 5743 5744 5744
5721 5720 5718 5716 5715 5713 5711 5710 5708 5707 5705 5701 5702 5701 5699 5696 5692 5689 5694 5698 5701 5702 5704 5706 5707 5709 5711 5713 5715 5717 5719 5722 5725 5727 5730 5731 5733 5735 5736 5738 5738 5739 5740
5720 5719 5717 5716 5714 5712 5710 5709 5707 5706 5704 5701 5699 5699 5698 5696 5695 5690 5687 5690 5695 5697 5700 5702 5703 5705 5707 5709 5710 5712 5714 5717 5719 5722 5724 5726 5728 5729 5730 5731 5733 5734 5734
5718 5718 5717 5715 5713 5711 5710 5708 5706 5704 5702 5700 5699 5698 5696 5694 5692 5690 5687 5686 5688 5691 5696 5698 5699 5701 5703 5705 5706 5708 5710 5712 5714 5716 5718 5720 5722 5723 5724 5726 5727 5728 5729
5716 5716 5716 5714 5712 5711 5709 5707 5704 5702 5700 5698 5697 5696 5696 5695 5695 5693 5689 5686 5685 5687 5691 5693 5694 5696 5698 5700 5702 5704 5706 5707 5709 5711 5712 5714 5715 5717 5718 5719 5720 5722 5723
5716 5716 5715 5714 5712 5710 5708 5706 5703 5700 5698 5697 5696 5695 5694 5694 5695 5694 5691 5687 5683 5682 5684 5686 5690 5692 5694 5696 5698 5700 5701 5703 5704 5705 5707 5708 5709 5711 5712 5713 5714 5715 5716
5717 5715 5714 5712 5711 5709 5707 5704 5701 5698 5697 5695 5694 5693 5692 5692 5693 5692 5691 5690 5685 5678 5676 5680 5684 5688 5690 5692 5693 5695 5696 5697 5699 5700 5701 5702 5703 5704 5705 5706 5707 5708 5710
5716 5714 5712 5711 5709 5707 5705 5703 5700 5698 5696 5694 5693 5692 5690 5689 5689 5689 5689 5688 5686 5681 5674 5676 5679 5682 5685 5688 5689 5690 5691 5692 5693 5694 5695 5696 5697 5698 5699 5700 5701 5702 5703
5714 5712 5710 5709 5707 5705 5703 5701 5698 5696 5694 5692 5690 5689 5687 5686 5685 5685 5685 5684 5681 5679 5673 5672 5675 5678 5681 5682 5683 5685 5686 5687 5687 5688 5689 5690 5691 5692 5692 5693 5694 5695 5696
5713 5710 5708 5706 5704 5702 5701 5699 5696 5694 5691 5688 5686 5685 5683 5683 5681 5680 5679 5677 5675 5674 5671 5668 5669 5672 5674 5675 5676 5678 5679 5680 5681 5682 5683 5684 5684 5685 5686 5686 5687 5688 5689
5710 5708 5706 5703 5701 5699 5697 5696 5693 5691 5688 5686 5684 5682 5680 5679 5676 5674 5673 5671 5670 5669 5667 5664 5663 5664 5666 5668 5669 5671 5672 5673 5674 5675 5676 5677 5677 5678 5678 5679 5680 5680 5681
5708 5705 5703 5701 5699 5697 5694 5693 5690 5687 5684 5682 5680 5678 5676 5674 5672 5670 5668 5666 5664 5662 5660 5658 5657 5657 5658 5659 5660 5660 5662 5663 5665 5667 5668 5668 5669 5669 5670 5671 5672 5672 5673
5705 5702 5699 5697 5695 5693 5691 5689 5687 5684 5681 5678 5676 5674 5672 5671 5669 5667 5665 5661 5659 5656 5653 5651 5649 5649 5649 5649 5649 5650 5651 5652 5656 5657 5658 5659 5660 5661 5661 5662 5662 5663 5664
5700 5698 5695 5693 5691 5690 5689 5687 5684 5680 5677 5674 5671 5669 5668 5666 5665 5663 5661 5658 5656 5652 5648 5645 5642 5641 5641 5642 5642 5643 5642 5642 5643 5648 5648 5649 5651 5651 5651 5652 5652 5653 5653
5696 5693 5691 5689 5686 5685 5685 5683 5680 5676 5673 5669 5666 5664 5663 5661 5658 5656 5654 5652 5650 5648 5646 5642 5638 5637 5636 5637 5636 5636 5635 5633 5633 5637 5638 5638 5640 5640 5642 5642 5642 5642 5643
5691 5688 5686 5684 5682 5681 5680 5678 5675 5671 5668 5665 5662 5660 5657 5655 5653 5650 5647 5644 5642 5641 5639 5638 5635 5634 5633 5632 5631 5629 5628 5627 5627 5628 5628 5626 5628 5629 5632 5632 5631 5631 5631
5687 5684 5682 5680 5677 5676 5675 5673 5670 5665 5662 5659 5657 5655 5653 5650 5648 5646 5641 5637 5635 5633 5633 5631 5630 5628 5627 5625 5624 5622 5619 5617 5616 5617 5617 5615 5616 5617 5620 5621 5620 5618 5618
5683 5681 5678 5675 5673 5671 5670 5668 5665 5660 5656 5653 5651 5649 5647 5645 5643 5640 5635 5631 5627 5626 5625 5624 5622 5620 5618 5616 5615 5613 5610 5606 5604 5604 5606 5603 5603 5602 5604 5608 5606 5604 5603